EW5383 Weather Reports


Display with metric or nautical units.
time (UTC)temp
F
wind
direction
speed
MPH
gust
MPH
rain 1hr
in
rain 24hr
in
rain mn
in
humidity
%
barometer
mb
20260904171540 97 325 0.0 1.0 0.00 0.23 0.00 58 1015.4
20260904170028 97 297 0.0 1.0 0.00 0.23 0.00 59 1015.5
20260904164524 97 86 0.0 1.0 0.00 0.23 0.00 59 1015.6
20260904163019 96 120 0.0 1.0 0.00 0.23 0.00 59 1015.6
20260904161515 95 34 0.0 1.0 0.00 0.23 0.00 59 1015.8
20260904160012 96 308 0.0 1.0 0.00 0.23 0.00 58 1015.9
20260904154506 96 158 0.0 1.0 0.00 0.23 0.00 57 1016.0
20260904153002 94 242 0.0 0.0 0.00 0.23 0.00 49 1015.9
20260904151558 93 226 0.0 1.0 0.00 0.23 0.00 42 1016.0
20260904150054 93 172 0.0 0.0 0.00 0.23 0.00 45 1015.7
20260904144548 93 208 0.0 0.0 0.00 0.23 0.00 36 1015.6
20260904143044 92 257 0.0 0.0 0.00 0.23 0.00 26 1015.6
20260904141540 91 97 0.0 0.0 0.00 0.23 0.00 1 1015.5
20260904140039 90 216 0.0 0.0 0.00 0.23 0.00 1 1015.5
20260904134536 88 200 0.0 1.0 0.00 0.23 0.00 1 1015.4
20260904133027 86 210 0.0 0.0 0.00 0.23 0.00 1 1015.3
20260904131538 85 201 0.0 0.0 0.00 0.23 0.00 1 1015.3
20260904130018 84 195 0.0 0.0 0.00 0.23 0.00 1 1015.0
20260904124514 82 210 0.0 1.0 0.00 0.23 0.00 1 1014.9
20260904123010 81 166 0.0 0.0 0.00 0.23 0.00 1 1015.0
20260904121508 79 108 0.0 0.0 0.00 0.23 0.00 1 1014.9
20260904114604 77 115 0.0 0.0 0.00 0.23 0.00 1 1014.6
20260904113053 77 134 0.0 0.0 0.00 0.23 0.00 1 1014.7
20260904111548 0 0.0 0.0 0.00 0.23 0.00 1014.5
20260904110044 0 0.0 0.0 0.00 0.23 0.00 1014.4
20260904104540 0 0.0 0.0 0.00 0.23 0.00 1014.3
20260904103048 0 0.0 0.0 0.00 0.23 0.00 1014.2
20260904101530 0 0.0 0.0 0.00 0.23 0.00 1013.9
20260904100029 0 0.0 0.0 0.00 0.23 0.00 1013.8
20260904094531 0 0.0 0.0 0.00 0.23 0.00 1013.6
20260904093018 0 0.0 0.0 0.00 0.23 0.00 1013.4
20260904091513 0 0.0 0.0 0.00 0.23 0.00 1013.4
20260904090008 0 0.0 0.0 0.00 0.23 0.00 1013.3
20260904084505 0 0.0 0.0 0.00 0.23 0.00 1013.3
20260904083105 0 0.0 0.0 0.00 0.23 0.00 1013.4
20260904081556 0 0.0 0.0 0.00 0.23 0.00 1013.6
20260904080051 0 0.0 0.0 0.00 0.23 0.00 1013.4
20260904074550 0 0.0 0.0 0.00 0.23 0.00 1013.5
20260904073048 0 0.0 0.0 0.00 0.23 0.00 1013.2
20260904071538 0 0.0 0.0 0.00 0.23 0.00 1013.2
20260904070034 0 0.0 0.0 0.00 0.23 0.00 1013.5
20260904064530 0 0.0 0.0 0.00 0.23 0.00 1013.6
20260904063026 0 0.0 0.0 0.00 0.23 0.00 1013.6
20260904061522 0 0.0 0.0 0.00 0.23 0.00 1013.6
20260904060018 0 0.0 0.0 0.00 0.23 0.00 1013.6
20260904054530 0 0.0 0.0 0.00 0.23 0.00 1013.8
20260904053014 0 0.0 0.0 0.00 0.23 0.00 1014.0
20260904051511 0 0.0 0.0 0.00 0.23 0.00 1014.1
20260904050059 0 0.0 0.0 0.00 0.23 0.00 1014.1
20260904044555 0 0.0 0.0 0.00 0.23 0.00 1014.2
20260904043054 0 0.0 0.0 0.00 0.23 0.00 1014.3
20260904041546 0 0.0 0.0 0.00 0.23 0.00 1014.4
20260904040042 0 0.0 0.0 0.00 0.23 0.00 1014.3
20260904034537 0 0.0 0.0 0.00 0.23 0.23 1014.4
20260904033033 0 0.0 0.0 0.00 0.23 0.23 1014.5
20260904031528 0 0.0 0.0 0.00 0.23 0.23 1014.4
20260904030024 78 107 0.0 1.0 0.00 0.23 0.23 1 1014.3
20260904024532 78 220 0.0 1.0 0.00 0.23 0.23 1 1014.1
20260904023016 79 244 0.0 1.0 0.00 0.23 0.23 1 1013.9
20260904021515 79 210 0.0 2.0 0.00 0.23 0.23 1 1013.9
20260904020006 79 116 0.0 1.0 0.00 0.23 0.23 1 1014.1
20260904014502 79 174 0.0 0.0 0.00 0.23 0.23 1 1014.1
20260904013118 79 126 0.0 1.0 0.00 0.23 0.23 1 1014.0
20260904011553 79 110 0.0 1.0 0.00 0.23 0.23 1 1014.0
20260904010052 79 214 0.0 0.0 0.00 0.23 0.23 1 1013.9
20260904004544 79 215 0.0 0.0 0.02 0.23 0.23 1 1013.5
20260904003042 80 214 0.0 0.0 0.02 0.23 0.23 1 1013.3
20260904001536 80 214 0.0 0.0 0.02 0.23 0.23 1 1013.4
20260904000030 81 252 0.0 0.0 0.02 0.23 0.23 1 1013.4
20260903234538 81 252 0.0 0.0 0.00 0.45 0.21 1 1013.3
20260903233029 81 240 0.0 0.0 0.00 0.45 0.21 1 1013.3
20260903231517 81 325 0.0 0.0 0.13 0.45 0.21 1 1013.2
20260903230012 81 325 0.0 0.0 0.14 0.45 0.21 1 1013.1
20260903224508 81 325 0.0 0.0 0.14 0.45 0.21 1 1013.1
20260903223004 82 3 0.0 1.0 0.14 0.45 0.21 1 1012.9
20260903221601 87 41 0.0 0.0 0.01 0.32 0.08 1 1012.8
20260903220056 87 41 0.0 0.0 0.00 0.31 0.07 16 1012.5
20260903214552 89 41 0.0 0.0 0.00 0.31 0.07 29 1012.4
20260903213046 89 41 0.0 0.0 0.00 0.31 0.07 48 1012.2
20260903211600 90 37 0.0 0.0 0.00 0.31 0.07 49 1012.1
20260903210039 90 239 0.0 0.0 0.00 0.31 0.07 54 1012.1
20260903204533 92 51 0.0 0.0 0.00 0.85 0.07 58 1012.3
20260903203032 94 244 0.0 0.0 0.00 0.85 0.07 55 1012.3
20260903201523 92 66 0.0 0.0 0.00 0.85 0.07 49 1012.6
20260903200020 91 110 0.0 0.0 0.00 0.85 0.07 52 1012.8
20260903194515 90 169 0.0 0.0 0.04 0.85 0.07 22 1013.0
20260903193010 87 103 0.0 0.0 0.07 0.85 0.07 1 1013.3
20260903191510 84 92 0.0 0.0 0.07 0.85 0.07 1 1013.5
20260903190002 83 60 0.0 0.0 0.07 0.85 0.07 1 1013.4
20260903184601 83 32 0.0 0.0 0.03 0.81 0.03 1 1013.3
20260903183053 84 48 0.0 0.0 0.00 0.78 0.00 1 1013.9
20260903181550 84 306 0.0 0.0 0.00 0.78 0.00 1 1014.1
20260903180044 85 168 0.0 0.0 0.00 0.78 0.00 1 1013.9
20260903174540 87 267 0.0 0.0 0.00 0.78 0.00 1 1014.3
20260903173039 90 236 0.0 1.0 0.00 0.78 0.00 41 1014.0